CAPE
14 103 114 165 100 32 40 151 195 227 254 74 38 39 21 4 0 0 0 42 68 99 132 124 183 170 586 513 413 225 474 391 567 843 1027 998 953 1230 656 1095 987 982 988 1051
0 9 117 148 118 98 122 143 133 282 363 183 30 5 12 0 6 2 0 13 84 107 91 302 337 297 470 555 378 159 236 428 612 551 794 916 1218 878 1033 547 859 890 760 701
26 55 59 343 170 136 66 111 306 490 516 361 68 24 2 1 28 20 10 0 51 113 100 162 332 421 336 475 381 200 683 516 721 600 704 1258 1522 976 953 630 615 569 504 582
140 181 39 340 286 64 184 115 415 366 168 61 73 41 0 1 22 17 69 17 37 103 203 187 340 410 413 512 514 436 775 728 927 776 1120 1026 734 721 652 606 569 549 523 726
113 47 69 426 279 212 218 129 491 295 145 122 113 50 26 0 26 14 65 56 75 107 149 197 290 395 403 436 601 539 480 396 492 627 899 1046 1034 823 715 539 296 62 241 563
41 34 5 0 29 66 35 237 553 367 234 274 175 61 35 0 4 35 44 67 128 145 164 244 344 515 478 484 603 796 716 768 747 837 1012 899 784 787 616 354 427 517 366 217
52 0 7 0 3 36 61 17 17 49 396 251 70 95 93 48 8 1 146 104 129 205 204 266 431 576 600 760 797 1107 1056 916 800 880 930 918 782 624 464 375 268 183 96 89
0 0 1 0 0 1 6 38 3 0 0 17 119 139 322 266 78 300 404 460 299 539 311 364 379 484 696 904 1164 1158 1134 532 528 794 673 523 371 328 287 205 128 24 0 0
0 0 0 0 0 0 0 0 3 0 0 5 157 534 476 382 535 472 666 468 604 555 730 764 840 860 907 1124 1183 1097 919 380 411 506 510 462 385 247 163 87 35 0 0 0
0 0 0 0 0 0 0 0 0 5 0 0 337 716 530 491 679 724 723 571 554 452 532 587 761 917 987 1013 968 1056 716 515 391 231 287 345 360 233 134 79 67 35 11 0
0 0 0 0 0 0 0 6 2 39 45 20 93 865 1300 668 532 700 521 496 604 748 726 731 713 682 770 821 952 877 679 583 490 264 292 372 292 242 185 108 87 97 23 5
0 0 0 0 0 0 0 0 0 0 0 0 20 979 1243 942 570 549 466 499 677 767 785 770 731 620 597 521 474 521 453 699 414 412 307 234 138 166 200 167 190 19 1 0
0 0 0 0 0 0 0 0 0 0 0 0 0 877 1188 865 779 535 301 26 96 565 692 603 607 544 489 456 432 408 356 292 289 292 214 239 222 158 78 7 0 0 0 0
0 0 0 0 0 0 0 0 0 0 0 2 558 949 1055 708 488 185 1 32 255 482 492 499 468 481 476 330 245 265 219 231 215 252 280 198 102 0 3 2 0 2 0 0
0 0 0 0 0 0 0 0 8 128 1 0 863 938 665 434 387 309 521 674 1009 727 569 678 665 399 329 264 215 257 185 281 197 178 25 3 0 7 1 0 0 0 0 0
0 0 0 0 0 10 16 14 38 37 931 1199 1111 947 816 804 594 499 512 562 583 661 570 463 418 336 273 67 30 30 6 0 0 0 0 0 0 0 0 0 0 0 0 0
0 0 1 1 15 39 48 59 74 442 788 1101 773 975 948 620 417 293 571 870 686 559 409 227 59 38 52 21 15 1 0 0 0 0 0 0 0 0 0 0 0 0 0 0
0 0 54 101 100 145 124 163 125 204 807 795 889 959 858 692 325 465 571 625 265 42 1 2 32 18 2 0 5 2 0 0 0 0 0 0 0 0 0 0 0 0 0 0
0 3 85 80 120 167 236 145 62 58 62 1045 826 764 686 400 349 273 184 45 12 0 0 0 0 0 0 0 0 0 0 0 0 0 0 0 0 0 0 0 0 0 0 0
0 0 88 131 132 125 176 159 148 69 1 609 1375 1131 713 575 454 326 167 88 53 37 0 0 0 0 0 0 0 0 0 0 0 0 0 0 0 0 0 0 0 0 3 13
2 8 15 52 92 217 232 212 64 30 29 308 506 1201 809 719 366 366 358 108 2 6 4 0 0 0 0 0 0 0 0 0 0 0 0 5 12 16 22 20 21 32 37 35
0 6 8 100 157 93 165 70 226 69 148 226 743 1220 951 372 194 72 15 0 8 21 18 0 0 0 0 0 0 0 0 0 0 0 32 64 31 26 25 18 23 29 31 40
38 18 2 1 6 31 139 79 28 7 4 120 23 79 9 0 0 0 11 1 2 3 0 0 0 0 0 0 0 0 0 0 37 150 141 148 77 36 25 30 43 49 32 73
0 13 3 1 14 50 45 22 5 0 0 35 88 1 0 0 0 1 4 0 5 6 12 8 0 0 0 0 0 0 5 63 112 320 279 244 128 32 3 45 31 35 62 79
0 27 67 91 44 0 29 5 0 0 0 0 142 99 5 0 1 9 20 11 2 12 12 0 0 0 0 0 0 0 3 88 307 322 350 282 178 68 17 39 61 76 73 64
0 16 16 51 20 30 46 12 0 0 0 0 0 0 0 0 0 0 15 10 16 18 7 0 0 0 0 0 0 0 35 50 75 146 247 266 294 252 123 129 138 120 64 31
CIN
-10 -122 -129 -58 -8 -20 -22 -93 -97 -57 -55 -18 -160 -10 -108 -128 0 0 0 -141 -70 -98 -88 -91 -42 -27 -59 -48 -25 -23 -54 -44 -80 -57 -32 -35 -46 -35 -32 -33 -40 -26 -19 -43
-11 -37 -138 -88 -27 -66 -34 -198 -145 -114 -70 -66 -155 -33 -85 0 -154 -36 0 -164 -121 -57 -112 -67 -60 -108 -84 -47 -27 -44 -110 -55 -73 -49 -36 -47 -55 -24 -35 -23 -15 -169 -115 -13
-49 -7 -32 -147 -76 -98 -60 -59 -96 -126 -73 -138 -171 -104 -173 -168 -184 -186 -126 0 -145 -126 -83 -96 -94 -116 -131 -86 -87 -174 -80 -104 -67 -47 -83 -39 -33 -59 -32 -33 -60 -30 -132 -65
-35 0 -10 -127 -111 -116 -108 -169 -122 -189 -108 -27 -175 -107 0 -126 -173 -182 -135 -185 -155 -125 -119 -129 -118 -116 -113 -132 -88 -154 -52 -75 -49 -29 -36 -23 -32 -20 -42 -33 -37 -33 -39 -133
-46 -20 -39 -23 -67 -72 -146 -188 -214 -75 -100 -53 -56 -81 -91 0 -193 -204 -126 -131 -175 -124 -120 -133 -174 -165 -142 -114 -74 -102 -63 -91 -49 -68 -41 -32 -24 -21 -19 -30 -25 -34 -86 -168
-92 -63 -78 0 -8 -117 -26 -143 -109 -45 -92 -43 -40 -66 -38 0 -114 -212 -152 -163 -219 -144 -110 -149 -174 -158 -97 -71 -99 -109 -114 -119 -93 -96 -47 -31 -44 -29 -36 -44 -38 -66 -140 -144
-84 0 -44 0 -9 -20 -16 -14 -1 -27 -22 -66 -65 -57 -64 -37 -31 -62 -130 -164 -196 -131 -96 -123 -144 -138 -118 -105 -100 -108 -80 -58 -49 -43 -40 -32 -50 -56 -51 -49 -49 -51 -57 -78
0 0 -5 0 0 -1 -7 -3 -2 0 -1 -30 -170 -93 -25 -121 -43 -213 -204 -280 -183 -184 -79 -59 -66 -89 -111 -85 -117 -77 -36 -47 -115 -58 -26 -24 -46 -36 -37 -35 -62 -36 0 0
0 0 0 0 0 0 0 0 -7 0 0 -28 -107 -86 -94 -325 -260 -221 -55 -240 -221 -272 -257 -194 -173 -160 -157 -134 -87 -56 -37 -67 -123 -93 -27 -27 -49 -52 -52 -51 -25 0 0 0
0 0 0 0 0 0 0 0 0 -4 -1 0 -32 -53 -72 -179 -175 -125 -67 -33 -181 -185 -179 -113 -118 -102 -105 -83 -62 -37 -59 -85 -47 -51 -103 -70 -55 -62 -58 -43 -37 -11 -5 0
0 0 0 0 0 0 0 -3 -3 -2 -2 -6 -29 -21 -124 -205 -231 -95 -70 -50 -181 -141 -176 -109 -101 -57 -51 -56 -27 -36 -77 -74 -78 -84 -67 -48 -53 -46 -36 -24 -11 -2 -12 -6
0 0 0 0 0 0 0 0 0 0 0 0 -7 -111 -107 -109 -79 -205 -72 -61 -121 -119 -119 -101 -107 -88 -73 -76 -76 -64 -61 -29 -40 -33 -46 -45 -46 -26 -21 -25 -13 -26 -7 0
0 0 0 0 0 0 0 0 0 0 0 0 0 -120 -111 -93 -123 -107 -70 -13 -44 -135 -79 -90 -97 -106 -97 -71 -56 -52 -56 -52 -61 -34 -49 -30 -15 -14 -30 -38 0 0 0 0
0 0 0 0 0 0 0 0 0 0 0 -23 -168 -131 -104 -98 -144 -287 0 -265 -111 -127 -136 -138 -126 -110 -91 -79 -71 -67 -58 -29 -16 -2 -2 -5 -10 -15 -26 -39 -3 -15 0 0
0 0 0 0 0 0 0 -2 -5 -80 -10 0 -240 -212 -104 -132 -237 -249 -144 -85 -47 -66 -85 -60 -48 -36 -17 -25 -22 -15 -22 -6 -6 -3 -1 -45 -6 -84 -39 0 0 0 0 0
0 0 0 0 0 -60 -179 -10 -118 -145 -101 -124 -169 -146 -34 -113 -125 -243 -215 -148 -122 -95 -72 -67 -57 -40 -33 -47 -75 -66 -44 0 0 0 0 0 0 0 0 0 0 0 0 0
0 0 -22 -23 -84 -57 -47 -169 -152 -72 -62 -60 -73 -156 -142 -103 -82 -273 -175 -102 -92 -92 -103 -98 -105 -65 -33 -50 -28 -20 0 0 0 0 0 0 0 0 0 0 0 0 0 0
0 0 -62 -40 -55 -73 -155 -101 -139 -141 -62 -32 -64 -93 -88 -87 -97 -169 -134 -110 -112 -87 -79 -23 -69 -44 -1 -1 -1 -2 0 0 0 0 0 0 0 0 0 0 0 0 0 0
0 -53 -82 -49 -30 -69 -130 -96 -40 -75 -165 -27 -48 -62 -59 -51 -68 -238 -290 -189 -194 -23 0 0 0 0 0 0 0 0 0 0 0 0 0 0 0 0 0 0 0 0 0 0
0 0 -25 -77 -68 -20 -40 -184 -114 -69 -21 -116 -64 -151 -124 -225 -69 -216 -127 -97 -56 -72 0 0 0 0 0 0 0 0 0 0 0 0 0 0 0 0 0 0 0 0 -15 -27
-34 -31 -97 -86 -89 -60 -141 -119 -86 -105 -137 -150 -95 -91 -78 -95 -93 -69 -64 -94 -61 -66 -2 0 0 0 0 0 0 0 0 0 0 0 0 -6 -10 -8 -7 -12 -26 -31 -40 -44
-107 -99 -30 -42 -49 -46 -84 -105 -88 -117 -123 -164 -66 -41 -47 -42 -43 -89 -100 -24 -3 -2 -3 0 0 0 0 0 0 0 0 0 0 -1 -11 -10 -11 -17 -23 -36 -56 -56 -67 -76
-65 -98 -7 -7 -42 -97 -109 -121 -96 -85 -103 -164 -150 -125 -9 -13 0 0 -86 -5 -5 -6 0 0 0 0 0 0 0 0 0 0 -10 -18 -16 -7 -12 -23 -28 -38 -47 -84 -105 -109
-6 -123 -117 -5 -203 -70 -62 -57 -69 0 0 -91 -99 -11 0 0 0 -16 -12 0 -4 -11 -73 -3 0 0 0 0 0 0 -16 -20 -14 -10 -7 -12 -23 -39 -17 -34 -37 -55 -42 -65
0 -76 -75 -50 -63 -48 -62 -25 0 0 0 0 -46 -57 -100 0 -16 -27 -27 -32 -6 -58 -115 0 0 0 0 0 0 0 -19 -15 -9 -11 -18 -17 -27 -34 -53 -40 -30 -42 -53 -40
0 -48 -90 -57 -103 -68 -62 -83 0 0 0 0 0 0 0 0 0 0 -33 -5 -4 -4 -5 0 0 0 0 0 0 0 -27 -24 -31 -31 -19 -16 -10 -17 -35 -32 -41 -40 -49 -52
Wind_Speed
nan 3 14 25 22 nan nan 6 10 19 13 nan nan nan nan nan nan nan nan nan nan nan 10 7 10 12 10 8 8 9 11 7 7 5 3 5 5 4 7 10 10 8 9 10
nan nan 18 21 13 nan 12 10 12 20 4 6 nan nan nan nan nan nan nan nan nan 14 nan 10 11 13 14 11 11 12 12 13 10 8 7 5 6 8 10 10 14 13 13 15
nan nan nan 15 8 6 nan 16 19 23 11 6 nan nan nan nan nan nan nan nan nan 20 19 16 15 13 13 12 10 13 12 16 13 12 11 9 10 8 11 11 17 17 18 21
9 5 nan 8 9 nan 4 21 25 36 17 nan nan nan nan nan nan nan nan nan nan 17 14 13 14 13 15 16 12 16 16 17 15 16 14 12 12 13 13 15 17 20 18 18
6 nan nan 6 7 26 2 30 32 31 19 14 15 nan nan nan nan nan nan nan nan 21 22 20 19 17 15 11 13 13 15 16 18 15 18 13 14 14 19 19 19 nan 22 20
nan nan nan nan nan nan nan 31 30 28 26 13 29 nan nan nan nan nan nan nan 16 18 22 19 19 16 20 20 20 20 22 21 21 22 21 15 14 18 10 11 19 23 23 20
nan nan nan nan nan nan nan nan nan nan 27 7 nan nan nan nan nan nan 19 21 18 31 17 18 21 12 15 21 26 32 27 21 22 21 26 21 22 18 21 23 24 22 nan nan
nan nan nan nan nan nan nan nan nan nan nan nan 23 21 11 10 nan 24 31 34 30 20 17 19 26 17 13 17 28 31 31 24 26 20 21 22 26 26 24 26 25 nan nan nan
nan nan nan nan nan nan nan nan nan nan nan nan 26 26 20 19 22 32 41 41 35 33 37 37 39 36 20 26 25 31 35 31 30 31 31 29 31 34 31 nan nan nan nan nan
nan nan nan nan nan nan nan nan nan nan nan nan 27 28 23 23 28 31 38 41 43 43 44 39 37 30 26 29 31 34 36 32 31 33 33 34 35 34 34 nan nan nan nan nan
nan nan nan nan nan nan nan nan nan nan nan nan nan 21 29 38 38 36 43 41 36 40 40 39 36 38 36 37 37 36 37 40 37 37 36 39 38 39 41 42 nan nan nan nan
nan nan nan nan nan nan nan nan nan nan nan nan nan 27 40 50 50 48 49 45 46 43 39 37 33 32 35 38 40 37 42 43 42 37 36 42 42 40 45 47 47 nan nan nan
nan nan nan nan nan nan nan nan nan nan nan nan nan 32 32 42 49 43 46 nan nan 22 28 30 34 35 37 41 40 38 41 42 41 42 43 42 46 46 nan nan nan nan nan nan
nan nan nan nan nan nan nan nan nan nan nan nan 29 37 36 35 46 44 nan nan 45 26 31 35 36 43 45 47 45 41 38 38 39 42 42 45 46 nan nan nan nan nan nan nan
nan nan nan nan nan nan nan nan nan 35 nan nan 34 37 33 31 40 44 49 46 37 31 33 33 38 42 42 37 37 38 37 39 41 42 nan nan nan nan nan nan nan nan nan nan
nan nan nan nan nan nan nan nan nan nan 40 45 43 44 42 36 41 43 43 40 32 35 46 50 51 50 49 nan nan nan nan nan nan nan nan nan nan nan nan nan nan nan nan nan
nan nan nan nan nan nan nan nan nan 44 34 34 31 32 49 43 44 43 41 34 39 44 52 56 nan nan nan nan nan nan nan nan nan nan nan nan nan nan nan nan nan nan nan nan
nan nan nan 35 44 50 40 39 52 63 47 48 49 50 41 40 38 44 40 46 50 nan nan nan nan nan nan nan nan nan nan nan nan nan nan nan nan nan nan nan nan nan nan nan
nan nan nan nan 27 27 34 34 nan nan nan 44 37 41 48 43 43 33 38 nan nan nan nan nan nan nan nan nan nan nan nan nan nan nan nan nan nan nan nan nan nan nan nan nan
nan nan nan 33 36 27 20 31 28 nan nan 39 31 40 32 44 42 32 38 nan nan nan nan nan nan nan nan nan nan nan nan nan nan nan nan nan nan nan nan nan nan nan nan nan
nan nan nan nan nan 11 18 21 nan nan nan 31 37 36 35 19 24 34 39 40 nan nan nan nan nan nan nan nan nan nan nan nan nan nan nan nan nan nan nan nan nan nan nan nan
nan nan nan 19 25 nan 28 nan 35 nan 36 39 34 28 30 28 31 nan nan nan nan nan nan nan nan nan nan nan nan nan nan nan nan nan nan nan nan nan nan nan nan nan nan nan
nan nan nan nan nan nan 19 nan nan nan nan 25 nan nan nan nan nan nan nan nan nan nan nan nan nan nan nan nan nan nan nan nan nan 44 42 40 nan nan nan nan nan nan nan nan
nan nan nan nan nan nan nan nan nan nan nan nan nan nan nan nan nan nan nan nan nan nan nan nan nan nan nan nan nan nan nan nan 32 29 27 27 26 nan nan nan nan nan nan nan
nan nan nan nan nan nan nan nan nan nan nan nan 21 nan nan nan nan nan nan nan nan nan nan nan nan nan nan nan nan nan nan nan 24 20 17 17 21 nan nan nan nan nan nan nan
nan nan nan nan nan nan nan nan nan nan nan nan nan nan nan nan nan nan nan nan nan nan nan nan nan nan nan nan nan nan nan nan nan 18 16 13 13 12 13 13 11 10 nan nan
Wind_Direction
nan 62 59 52 54 nan nan 36 267 261 207 nan nan nan nan nan nan nan nan nan nan nan 24 7 352 339 356 346 318 308 305 324 299 285 255 229 259 260 221 260 268 264 285 281
nan nan 38 33 49 nan 11 316 339 300 6 248 nan nan nan nan nan nan nan nan nan 358 nan 352 332 342 341 342 335 311 314 312 307 303 293 301 294 301 288 273 269 261 279 279
nan nan nan 26 21 40 nan 339 318 319 336 60 nan nan nan nan nan nan nan nan nan 6 5 354 338 330 323 331 330 313 313 317 312 306 286 270 262 257 253 259 266 260 267 278
219 157 nan 10 32 nan 297 323 317 322 319 nan nan nan nan nan nan nan nan nan nan 359 1 356 352 347 346 346 328 315 321 318 316 310 290 299 296 283 284 277 269 268 263 269
196 nan nan 325 359 320 320 319 325 313 292 280 4 nan nan nan nan nan nan nan nan 337 334 343 339 351 355 336 323 315 309 306 295 318 285 257 263 285 262 260 271 nan 274 273
nan nan nan nan nan nan nan 290 286 279 272 279 336 nan nan nan nan nan nan nan 346 325 320 320 328 345 332 327 310 293 294 294 265 264 288 261 282 298 313 278 273 270 274 267
nan nan nan nan nan nan nan nan nan nan 268 311 nan nan nan nan nan nan 292 317 320 331 305 305 301 340 312 312 295 290 297 284 260 268 271 264 273 277 280 280 287 281 nan nan
nan nan nan nan nan nan nan nan nan nan nan nan 249 269 253 258 nan 283 273 256 279 282 297 317 330 318 306 286 274 276 277 256 263 249 267 255 269 276 278 279 282 nan nan nan
nan nan nan nan nan nan nan nan nan nan nan nan 259 261 262 246 279 277 271 259 257 253 251 256 266 277 270 263 264 272 268 267 259 269 271 270 270 273 276 nan nan nan nan nan
nan nan nan nan nan nan nan nan nan nan nan nan 239 253 269 278 268 269 265 263 271 258 252 256 261 264 276 272 264 269 269 268 265 265 266 271 272 272 274 nan nan nan nan nan
nan nan nan nan nan nan nan nan nan nan nan nan nan 256 240 260 262 262 248 255 243 245 248 251 255 259 268 269 269 270 273 275 272 276 273 272 271 273 273 272 nan nan nan nan
nan nan nan nan nan nan nan nan nan nan nan nan nan 250 246 260 269 268 263 242 233 231 242 253 260 266 270 273 272 272 279 280 279 274 275 274 269 267 268 271 277 nan nan nan
nan nan nan nan nan nan nan nan nan nan nan nan nan 253 253 258 267 279 277 nan nan 265 275 276 279 282 282 281 279 277 277 277 277 276 268 265 271 273 nan nan nan nan nan nan
nan nan nan nan nan nan nan nan nan nan nan nan 249 263 265 268 274 271 nan nan 305 287 282 284 287 291 292 291 290 289 285 282 281 277 275 274 276 nan nan nan nan nan nan nan
nan nan nan nan nan nan nan nan nan 232 nan nan 271 263 275 267 276 276 278 284 298 303 305 301 298 300 300 294 288 283 283 283 284 285 nan nan nan nan nan nan nan nan nan nan
nan nan nan nan nan nan nan nan nan nan 249 256 256 249 255 262 258 269 283 289 289 296 309 310 307 304 298 nan nan nan nan nan nan nan nan nan nan nan nan nan nan nan nan nan
nan nan nan nan nan nan nan nan nan 247 241 262 264 263 260 266 268 274 277 285 297 296 298 302 nan nan nan nan nan nan nan nan nan nan nan nan nan nan nan nan nan nan nan nan
nan nan nan 250 237 239 254 251 251 255 248 244 251 272 265 266 265 271 282 291 290 nan nan nan nan nan nan nan nan nan nan nan nan nan nan nan nan nan nan nan nan nan nan nan
nan nan nan nan 233 232 243 242 nan nan nan 251 248 252 262 264 257 262 279 nan nan nan nan nan nan nan nan nan nan nan nan nan nan nan nan nan nan nan nan nan nan nan nan nan
nan nan nan 243 249 243 255 260 261 nan nan 270 261 271 281 288 266 266 283 nan nan nan nan nan nan nan nan nan nan nan nan nan nan nan nan nan nan nan nan nan nan nan nan nan
nan nan nan nan nan 259 263 269 nan nan nan 300 295 310 317 294 272 277 285 285 nan nan nan nan nan nan nan nan nan nan nan nan nan nan nan nan nan nan nan nan nan nan nan nan
nan nan nan 260 272 nan 271 nan 282 nan 280 283 276 295 298 293 294 nan nan nan nan nan nan nan nan nan nan nan nan nan nan nan nan nan nan nan nan nan nan nan nan nan nan nan
nan nan nan nan nan nan 243 nan nan nan nan 286 nan nan nan nan nan nan nan nan nan nan nan nan nan nan nan nan nan nan nan nan nan 278 272 269 nan nan nan nan nan nan nan nan
nan nan nan nan nan nan nan nan nan nan nan nan nan nan nan nan nan nan nan nan nan nan nan nan nan nan nan nan nan nan nan nan 310 297 286 276 268 nan nan nan nan nan nan nan
nan nan nan nan nan nan nan nan nan nan nan nan 304 nan nan nan nan nan nan nan nan nan nan nan nan nan nan nan nan nan nan nan 329 328 313 295 282 nan nan nan nan nan nan nan
nan nan nan nan nan nan nan nan nan nan nan nan nan nan nan nan nan nan nan nan nan nan nan nan nan nan nan nan nan nan nan nan nan 328 324 315 299 287 283 286 269 295 nan nan